CZ-3B DEB, 40179

Orbit data source: Space-Track

CZ-3B DEB, 40179 is space debris in HEO originally from a launch on Mon, 19 Dec 2011 UTC launched from the Xichang Space Center, China (XSC). Debris objects in space refer to the collection of defunct objects orbiting the Earth. Examples of debris include non-operational satellites, rocket bodies, and fragments generated from explosions, collisions, or faulty payload assembly.

Loading next visibility...
Identifier
40179, 2011-077C
Orbit
HEO
Country
Flag of CNCN / PRC
Related business
Manufacturer
CALT
Mission
Spacecraft
Bus & Motor
Unknown
Mass
Unknown
Launch date (UTC)
2011-12-19 (14 years ago)
Launch vehicle
Unknown
Launch site
Xichang Space Center, China (XSC)
Object type
Payload
Rocket body
Debris
Shape & HBR
Unknown shape, 0.3 m
Radar Cross Section
Medium (>0.1 m² and <1 m²)

Expand to show TLE details & history
Last TLE update: 11 hours ago

TLE from 11 hours ago
0 CZ-3B DEB
1 40179U 11077C   26014.98587892  .00000120  00000-0  47170-2 0  9990
2 40179  26.3617 340.1392 7417029  77.3922 349.8662  1.91900278 85165
Epoch: 2026-01-14T23:39Z
TLE epoch observation values (Epoch: 2026-01-14T23:39:39.938Z)
Latitude
-0.00001°
Longitude
-129.25157°
Altitude
4,224.903 km
Speed
7.785 km/s
True Right ascension
22h 40m 26s
True Declination
0° 00' 00"
Sunlit
Object was in daylight at epoch
Visualization orbit readout
Latitude
Unknown
Longitude
Unknown
Altitude
Unknown
Speed
Unknown
Apparent Right ascension
Unknown
Apparent Declination
Unknown
Sunlit
N/A
Visualization observer readout
Local Sidereal Time
11:39:28
Azimuth
Unknown
Elevation
Unknown
Doppler factor
Unknown
Orbital elements
Apogee altitude
41,270.679 km
Perigee altitude
688.252 km
Semi-major axis
27,357.603 km
Eccentricity
0.7417
Inclination
26.3617°
RAAN
340.1392°
Arg. of periapsis
77.3922°
True anomaly
283.57367°
Mean anomaly
349.8662°
Eccentric anomaly
326.2668°
Mean motion
0.47965 °/min
Orbital period
750.54 mins
BSTAR
0.004717
Loading maneuver chart data...
Computing Atmospheric mass density...
Loading historical data...
Loading historical data...
Loading historical data...
Loading historical data...
Loading historical data...
Loading historical data...
Loading historical data...

Documentation

Showing up to 5 results
|